User: anonymous   Login
Location: Hartman Creek State Park
(44.3257°N, 89.2134°W)
Time: 14:05:11
(UTC-06:00)
Language:

Terra - Orbit

View from above orbital plane
View from above orbital plane
View from above satellite
View from above satellite

Ground track
Ground track

The orbit data is extracted from the following two-line orbital elements,

1 25994U 99068A   16041.43256914  .00000274  00000-0  70759-4 0  9992
2 25994  98.2005 117.5312 0001404 112.0687 248.0664 14.57121578858911
Epoch (UTC): 10 February 2016 10:22:53
Eccentricity: 0.0001404
inclination: 98.2005°
perigee height: 701 km
apogee height: 703 km
right ascension of ascending node: 117.5312°
argument of perigee: 112.0687°
revolutions per day: 14.57121578
mean anomaly at epoch: 248.0664°
orbit number at epoch: 85891

The dashed part of the orbit path shows where the satellite is in the earth's shadow,  

DLR